CW8944 Weather Reports


time (UTC)temp
C
wind
direction
speed
KPH
gust
KPH
rain 1hr
cm
rain 24hr
cm
rain mn
cm
humidity
%
barometer
mb
20240521044009 11 0 0.0 0.0 0.00 0.03 0.00 93 1014.8
20240521043508 11 0 0.0 0.0 0.00 0.03 0.00 93 1015.0
20240521043015 11 0 0.0 0.0 0.00 0.03 0.00 93 1014.9
20240521042508 11 0 0.0 0.0 0.00 0.03 0.00 93 1015.0
20240521042013 11 0 0.0 0.0 0.00 0.03 0.00 93 1015.0
20240521041520 11 0 0.0 0.0 0.00 0.03 0.00 93 1015.0
20240521041010 11 0 0.0 0.0 0.00 0.03 0.00 93 1015.2
20240521040511 11 0 0.0 0.0 0.00 0.03 0.00 93 1015.2
20240521040021 11 0 0.0 0.0 0.00 0.03 0.00 92 1015.2
20240521035509 11 0 0.0 0.0 0.00 0.03 0.03 92 1015.2
20240521035011 11 0 0.0 0.0 0.00 0.03 0.03 92 1015.3
20240521034517 11 0 0.0 0.0 0.00 0.03 0.03 92 1015.3
20240521034011 11 0 0.0 0.0 0.00 0.03 0.03 92 1015.3
20240521033511 11 0 0.0 0.0 0.00 0.03 0.03 92 1015.3
20240521033017 11 0 0.0 0.0 0.00 0.03 0.03 92 1015.4
20240521032511 11 0 0.0 0.0 0.00 0.03 0.03 92 1015.4
20240521032011 11 0 0.0 0.0 0.00 0.03 0.03 92 1015.5
20240521031517 11 0 0.0 0.0 0.00 0.03 0.03 91 1015.5
20240521031010 11 0 0.0 0.0 0.00 0.03 0.03 91 1015.4
20240521030511 11 0 0.0 0.0 0.00 0.03 0.03 91 1015.3
20240521030018 12 0 0.0 0.0 0.00 0.03 0.03 91 1015.3
20240521025512 12 0 0.0 0.0 0.00 0.03 0.03 91 1015.2
20240521025009 12 0 0.0 0.0 0.00 0.03 0.03 91 1015.2
20240521024515 12 0 0.0 0.0 0.00 0.03 0.03 91 1015.2
20240521024008 12 0 0.0 0.0 0.00 0.03 0.03 91 1015.4
20240521023512 12 0 0.0 0.0 0.00 0.03 0.03 91 1015.3
20240521023014 12 0 0.0 0.0 0.00 0.03 0.03 91 1015.3
20240521022510 12 0 0.0 0.0 0.00 0.03 0.03 90 1015.3
20240521022010 12 0 0.0 0.0 0.00 0.03 0.03 90 1015.3
20240521021516 12 0 0.0 0.0 0.00 0.03 0.03 90 1015.2
20240521021011 12 0 0.0 0.0 0.00 0.03 0.03 90 1015.2
20240521020511 12 0 0.0 0.0 0.00 0.03 0.03 89 1015.1
20240521020016 12 0 0.0 0.0 0.00 0.03 0.03 89 1015.1
20240521015511 12 0 0.0 0.0 0.00 0.03 0.03 89 1015.1
20240521015011 12 0 0.0 0.0 0.00 0.03 0.03 88 1015.0
20240521014513 12 0 0.0 0.0 0.00 0.03 0.03 88 1015.2
20240521014009 13 0 0.0 0.0 0.00 0.03 0.03 88 1015.1
20240521013510 13 0 0.0 0.0 0.00 0.03 0.03 88 1015.3
20240521013025 13 0 0.0 0.0 0.00 0.03 0.03 87 1015.3
20240521012509 13 0 0.0 0.0 0.00 0.03 0.03 87 1015.1
20240521012008 13 0 0.0 0.0 0.00 0.03 0.03 87 1015.0
20240521011515 13 0 0.0 0.0 0.00 0.03 0.03 87 1015.1
20240521011011 13 0 0.0 0.0 0.00 0.03 0.03 87 1015.0
20240521010510 13 0 0.0 0.0 0.00 0.03 0.03 86 1015.0
20240521010015 13 0 0.0 0.0 0.00 0.03 0.03 86 1014.9
20240521005511 13 0 0.0 0.0 0.00 0.03 0.03 86 1014.9
20240521005012 13 0 0.0 0.0 0.00 0.03 0.03 86 1014.9
20240521004518 13 0 0.0 0.0 0.00 0.03 0.03 85 1014.8
20240521004010 14 0 0.0 0.0 0.00 0.03 0.03 85 1014.7
20240521003511 14 0 0.0 0.0 0.00 0.03 0.03 84 1014.7
20240521003015 14 0 0.0 0.0 0.00 0.03 0.03 84 1014.8
20240521002509 14 0 0.0 0.0 0.00 0.03 0.03 83 1014.7
20240521002009 14 0 0.0 0.0 0.00 0.03 0.03 83 1014.7
20240521001518 15 0 0.0 0.0 0.00 0.03 0.03 82 1014.7
20240521001011 15 0 0.0 0.0 0.00 0.03 0.03 82 1014.7
20240521000511 15 0 0.0 0.0 0.00 0.03 0.03 81 1014.8
20240521000015 15 0 0.0 0.0 0.00 0.03 0.03 80 1014.7
20240520235509 15 0 0.0 9.7 0.00 0.03 0.03 79 1014.6
20240520235009 15 0 0.0 9.7 0.00 0.03 0.03 79 1014.5
20240520234514 16 0 0.0 3.2 0.00 0.03 0.03 78 1014.5
20240520234011 16 0 0.0 3.2 0.00 0.03 0.03 77 1014.4
20240520233511 16 0 0.0 3.2 0.00 0.03 0.03 77 1014.4
20240520233016 16 0 0.0 1.6 0.00 0.03 0.03 76 1014.6
20240520232511 16 0 0.0 0.0 0.00 0.03 0.03 76 1014.5
20240520232015 16 0 0.0 8.0 0.00 0.03 0.03 76 1014.6
20240520231522 16 0 0.0 8.0 0.00 0.03 0.03 75 1014.7
20240520231018 16 0 0.0 8.0 0.00 0.03 0.03 74 1014.7
20240520230510 17 177 0.0 9.7 0.00 0.03 0.03 74 1014.8
20240520230015 17 0 0.0 9.7 0.00 0.03 0.03 74 1014.7
20240520225513 17 0 0.0 9.7 0.00 0.03 0.03 73 1014.7
20240520225010 17 0 0.0 9.7 0.00 0.03 0.03 75 1014.6
20240520224519 17 0 0.0 0.0 0.00 0.03 0.03 75 1014.6
20240520224012 17 0 0.0 8.0 0.00 0.03 0.03 74 1014.7
20240520223510 17 0 0.0 8.0 0.00 0.03 0.03 73 1014.8
20240520223028 17 176 0.0 8.0 0.00 0.03 0.03 73 1014.8
20240520222511 18 0 0.0 6.4 0.00 0.03 0.03 74 1014.9
20240520222008 18 0 0.0 6.4 0.00 0.03 0.03 74 1014.9
20240520221516 18 0 0.0 6.4 0.00 0.03 0.03 74 1015.0
20240520221011 18 0 0.0 6.4 0.00 0.03 0.03 74 1014.9
20240520220511 18 0 0.0 8.0 0.00 0.03 0.03 73 1015.0
20240520220028 18 172 1.6 8.0 0.00 0.03 0.03 73 1015.0
20240520215510 18 0 0.0 0.0 0.00 0.03 0.03 73 1015.0
20240520215012 18 0 0.0 4.8 0.00 0.03 0.03 72 1015.1
20240520214516 18 0 0.0 9.7 0.00 0.03 0.03 72 1015.0
20240520214011 18 0 0.0 9.7 0.00 0.03 0.03 71 1015.1
20240520213510 19 174 0.0 8.0 0.00 0.03 0.03 70 1015.0
20240520213015 19 0 0.0 8.0 0.00 0.03 0.03 70 1015.1
20240520212511 19 0 0.0 8.0 0.00 0.03 0.03 71 1015.1
20240520212011 19 229 0.0 8.0 0.00 0.03 0.03 70 1015.1
20240520211516 19 0 0.0 9.7 0.00 0.03 0.03 69 1015.1
20240520211008 20 0 0.0 12.9 0.00 0.03 0.03 69 1015.1
20240520210508 20 130 3.2 12.9 0.00 0.03 0.03 69 1015.1
20240520210015 20 0 0.0 12.9 0.00 0.03 0.03 68 1015.1
20240520205509 20 91 1.6 12.9 0.00 0.03 0.03 66 1015.2
20240520205011 20 142 1.6 11.3 0.00 0.03 0.03 67 1015.1
20240520204516 20 0 0.0 11.3 0.00 0.03 0.03 69 1015.2
20240520204012 20 0 0.0 11.3 0.00 0.03 0.03 70 1015.2
20240520203511 20 0 1.6 11.3 0.00 0.03 0.03 69 1015.4
20240520203017 20 0 1.6 8.0 0.00 0.03 0.03 68 1015.3
20240520202511 20 0 0.0 8.0 0.00 0.03 0.03 67 1015.3
20240520202012 21 0 0.0 11.3 0.00 0.03 0.03 66 1015.3
20240520201526 21 0 0.0 11.3 0.00 0.03 0.03 66 1015.3
20240520201011 21 0 1.6 16.1 0.00 0.03 0.03 66 1015.2
20240520200513 21 0 1.6 16.1 0.00 0.03 0.03 65 1015.3
20240520200018 21 0 3.2 16.1 0.00 0.03 0.03 64 1015.4
20240520195515 21 0 1.6 14.5 0.00 0.03 0.03 65 1015.5
20240520195011 21 0 0.0 14.5 0.00 0.03 0.03 66 1015.5
20240520194519 21 192 1.6 14.5 0.00 0.03 0.03 65 1015.7
20240520194011 21 0 1.6 14.5 0.00 0.03 0.03 65 1015.6
20240520193511 21 0 1.6 14.5 0.00 0.03 0.03 65 1015.9
20240520193016 21 184 3.2 9.7 0.00 0.03 0.03 65 1015.6
20240520192514 21 0 0.0 11.3 0.00 0.03 0.03 66 1015.7
20240520192011 21 0 0.0 14.5 0.00 0.03 0.03 67 1015.7
20240520191548 21 132 1.6 16.1 0.00 0.03 0.03 66 1015.7
20240520191018 21 122 0.0 16.1 0.00 0.03 0.03 66 1015.7
20240520190511 21 0 1.6 8.0 0.00 0.03 0.03 67 1015.7
20240520190017 21 0 0.0 12.9 0.00 0.03 0.03 68 1015.8
20240520185511 20 0 3.2 12.9 0.00 0.03 0.03 68 1015.8
20240520185013 21 0 1.6 11.3 0.00 0.03 0.03 67 1016.0
20240520184516 21 0 0.0 9.7 0.00 0.03 0.03 65 1015.9
20240520184012 21 0 0.0 9.7 0.00 0.03 0.03 64 1015.9
20240520183512 21 165 3.2 9.7 0.00 0.03 0.03 64 1015.9
20240520183014 21 0 0.0 9.7 0.00 0.03 0.03 67 1016.0
20240520182511 21 193 1.6 6.4 0.00 0.03 0.03 64 1016.0
20240520182011 21 0 0.0 11.3 0.00 0.03 0.03 65 1016.0
20240520181514 20 0 0.0 11.3 0.00 0.03 0.03 65 1016.1
20240520181013 20 183 3.2 11.3 0.00 0.03 0.03 65 1016.2
20240520180511 21 0 0.0 0.0 0.00 0.03 0.03 66 1016.2
20240520180014 21 0 0.0 8.0 0.00 0.03 0.03 66 1016.0
20240520175511 21 0 0.0 8.0 0.00 0.03 0.03 67 1016.2
20240520175015 20 108 1.6 9.7 0.00 0.03 0.03 70 1016.2
20240520174519 20 0 0.0 11.3 0.00 0.03 0.03 67 1016.2
20240520174012 20 0 0.0 11.3 0.00 0.03 0.03 70 1016.3
20240520173511 20 0 0.0 6.4 0.00 0.03 0.03 71 1016.2
20240520173014 20 0 1.6 9.7 0.00 0.03 0.03 71 1016.2
20240520172513 19 224 3.2 9.7 0.00 0.03 0.03 70 1016.3
20240520172011 19 130 0.0 8.0 0.00 0.03 0.03 72 1016.4
20240520171518 18 0 0.0 8.0 0.00 0.03 0.03 71 1016.4
20240520171011 19 189 0.0 8.0 0.00 0.03 0.03 71 1016.4
20240520170514 19 0 0.0 6.4 0.00 0.03 0.03 70 1016.4
20240520170015 19 0 0.0 4.8 0.00 0.03 0.03 74 1016.6
20240520165511 18 0 0.0 0.0 0.00 0.03 0.03 75 1016.7
20240520165012 18 0 0.0 0.0 0.00 0.03 0.03 72 1016.6
20240520164528 18 0 0.0 0.0 0.00 0.03 0.03 72 1016.8
20240520164011 19 0 0.0 8.0 0.00 0.03 0.03 76 1016.8
20240520163511 18 0 1.6 8.0 0.00 0.03 0.03 78 1016.9
20240520163017 18 0 0.0 1.6 0.00 0.03 0.03 78 1016.9
20240520162511 17 0 0.0 8.0 0.00 0.03 0.03 81 1017.0
20240520162011 17 0 0.0 8.0 0.00 0.03 0.03 82 1017.1
20240520161515 16 0 0.0 6.4 0.00 0.03 0.03 81 1017.1
20240520161009 16 0 0.0 9.7 0.00 0.03 0.03 80 1017.2
20240520160511 16 236 1.6 9.7 0.00 0.03 0.03 80 1017.2
20240520160038 16 234 0.0 9.7 0.00 0.03 0.03 82 1017.1
20240520155509 16 0 0.0 0.0 0.00 0.03 0.03 83 1017.2
20240520155010 16 0 0.0 0.0 0.00 0.03 0.03 82 1017.2
20240520154526 16 0 0.0 6.4 0.00 0.03 0.03 83 1017.2
20240520154009 16 0 0.0 6.4 0.00 0.03 0.03 83 1017.3
20240520153511 16 185 0.0 6.4 0.00 0.03 0.03 84 1017.2
20240520153015 16 0 0.0 4.8 0.00 0.03 0.03 86 1017.2
20240520152510 15 0 0.0 0.0 0.00 0.03 0.03 87 1017.1
20240520152011 15 0 0.0 6.4 0.00 0.03 0.03 88 1017.2
20240520151521 15 0 0.0 6.4 0.00 0.03 0.03 86 1017.1
20240520151011 15 197 1.6 6.4 0.00 0.03 0.03 88 1017.2
20240520150513 15 0 0.0 0.0 0.00 0.03 0.03 88 1017.4
20240520150016 15 0 0.0 4.8 0.00 0.03 0.03 87 1017.2
20240520145510 15 0 0.0 4.8 0.00 0.03 0.03 88 1017.1
20240520145009 15 0 0.0 0.0 0.00 0.03 0.03 89 1017.1
20240520144523 14 0 0.0 0.0 0.00 0.03 0.03 89 1017.1
20240520144008 14 0 0.0 4.8 0.00 0.03 0.03 89 1016.8
20240520143511 14 0 0.0 4.8 0.00 0.03 0.03 90 1016.8
20240520143015 14 0 0.0 0.0 0.00 0.03 0.03 90 1016.8
20240520142512 14 0 0.0 4.8 0.00 0.03 0.03 91 1016.8
20240520142010 14 0 0.0 8.0 0.00 0.03 0.03 91 1017.0
20240520141514 14 0 0.0 8.0 0.00 0.03 0.03 91 1017.0
20240520141009 14 0 0.0 0.0 0.00 0.03 0.03 93 1017.1
20240520140508 13 0 0.0 0.0 0.00 0.03 0.03 93 1017.2
20240520140019 13 0 0.0 6.4 0.00 0.03 0.03 92 1017.1
20240520135510 13 0 0.0 6.4 0.00 0.03 0.03 92 1017.1
20240520135011 13 0 1.6 6.4 0.00 0.03 0.03 92 1017.1
20240520134512 13 0 0.0 0.0 0.00 0.03 0.03 93 1017.1
20240520134013 13 0 0.0 0.0 0.00 0.03 0.03 93 1017.2
20240520133514 13 0 0.0 6.4 0.00 0.03 0.03 93 1017.2
20240520133015 13 0 0.0 6.4 0.00 0.03 0.03 93 1017.2
20240520132511 13 0 0.0 0.0 0.00 0.03 0.03 93 1017.4
20240520132008 13 0 0.0 0.0 0.00 0.03 0.03 94 1017.4
20240520131513 13 0 0.0 0.0 0.00 0.03 0.03 94 1017.4
20240520131009 13 0 0.0 0.0 0.00 0.03 0.03 94 1017.4
20240520130509 13 0 0.0 0.0 0.00 0.03 0.03 94 1017.4
20240520130014 13 0 0.0 0.0 0.00 0.03 0.03 94 1017.4
20240520125510 13 0 0.0 0.0 0.00 0.03 0.03 94 1017.4
20240520125011 13 0 0.0 0.0 0.00 0.03 0.03 94 1017.4
20240520124516 13 0 0.0 0.0 0.00 0.03 0.03 94 1017.4
20240520124008 13 0 0.0 0.0 0.00 0.03 0.03 94 1017.4
20240520123508 13 0 0.0 0.0 0.00 0.03 0.03 94 1017.6
20240520123022 13 0 0.0 0.0 0.00 0.03 0.03 94 1017.7
20240520122508 13 0 0.0 0.0 0.00 0.03 0.03 95 1017.6
20240520122008 12 0 0.0 0.0 0.00 0.03 0.03 94 1017.6
20240520121515 13 0 0.0 0.0 0.00 0.03 0.03 94 1017.6
20240520121010 13 0 0.0 0.0 0.00 0.03 0.03 95 1017.6
20240520120513 13 0 0.0 0.0 0.00 0.03 0.03 95 1017.7
20240520120021 13 0 0.0 0.0 0.00 0.03 0.03 95 1017.7
20240520115508 13 0 0.0 0.0 0.00 0.03 0.03 95 1017.7
20240520115009 12 0 0.0 0.0 0.00 0.03 0.03 95 1017.6
20240520114517 12 0 0.0 0.0 0.00 0.03 0.03 95 1017.6
20240520114009 12 0 0.0 0.0 0.00 0.03 0.03 95 1017.5
20240520113509 12 0 0.0 0.0 0.00 0.03 0.03 95 1017.4
20240520113024 12 0 0.0 0.0 0.00 0.03 0.03 95 1017.4
20240520112510 12 0 0.0 0.0 0.00 0.03 0.03 95 1017.2
20240520112008 12 0 0.0 0.0 0.00 0.03 0.03 95 1017.2
20240520111519 12 0 0.0 0.0 0.00 0.03 0.03 95 1017.1
20240520111009 12 0 0.0 0.0 0.00 0.03 0.03 95 1017.2
20240520110509 12 0 0.0 0.0 0.00 0.03 0.03 95 1017.1
20240520110021 12 0 0.0 0.0 0.00 0.03 0.03 95 1017.1
20240520105510 12 0 0.0 0.0 0.00 0.03 0.03 95 1017.1
20240520105205 12 0 0.0 0.0 0.00 0.03 0.03 95 1017.1
20240520104516 12 0 0.0 0.0 0.00 0.03 0.03 95 1017.0
20240520104007 12 0 0.0 0.0 0.00 0.03 0.03 95 1017.1
20240520103511 12 0 0.0 0.0 0.00 0.03 0.03 95 1017.1
20240520103014 12 0 0.0 0.0 0.00 0.03 0.03 95 1017.1
20240520102511 12 0 0.0 0.0 0.00 0.03 0.03 95 1017.1
20240520102009 12 0 0.0 0.0 0.00 0.03 0.03 95 1017.1
20240520101514 12 0 0.0 0.0 0.00 0.03 0.03 95 1017.1
20240520101008 12 0 0.0 0.0 0.00 0.03 0.03 95 1017.1
20240520100509 12 0 0.0 0.0 0.00 0.03 0.03 95 1017.0
20240520100015 12 0 0.0 0.0 0.00 0.03 0.03 95 1017.0
20240520095510 12 0 0.0 0.0 0.00 0.03 0.03 95 1017.0
20240520095012 12 0 0.0 0.0 0.00 0.03 0.03 95 1017.0
20240520094517 12 0 0.0 0.0 0.00 0.03 0.03 95 1017.1
20240520094011 12 0 0.0 0.0 0.00 0.03 0.03 95 1017.1
20240520093510 12 0 0.0 0.0 0.00 0.03 0.03 95 1017.1
20240520093016 12 0 0.0 0.0 0.00 0.03 0.03 95 1017.1
20240520092512 12 0 0.0 0.0 0.00 0.03 0.03 95 1017.1
20240520092009 12 0 0.0 0.0 0.00 0.03 0.03 95 1017.1
20240520091517 12 0 0.0 0.0 0.00 0.03 0.03 95 1017.1
20240520091012 12 0 0.0 0.0 0.00 0.03 0.03 95 1017.0
20240520090511 12 0 0.0 0.0 0.00 0.03 0.03 95 1017.0
20240520090017 12 0 0.0 0.0 0.00 0.03 0.03 95 1017.0
20240520085512 12 0 0.0 0.0 0.00 0.03 0.03 95 1017.0
20240520085012 12 0 0.0 0.0 0.00 0.03 0.03 95 1017.0
20240520084514 12 0 0.0 0.0 0.00 0.03 0.03 95 1017.0
20240520084012 12 0 0.0 0.0 0.03 0.03 0.03 95 1017.0
20240520083512 12 0 0.0 0.0 0.03 0.03 0.03 95 1017.0
20240520083034 12 0 0.0 0.0 0.03 0.03 0.03 95 1017.0
20240520082512 12 0 0.0 0.0 0.03 0.03 0.03 95 1016.9
20240520082011 12 0 0.0 0.0 0.03 0.03 0.03 94 1017.0
20240520081516 12 0 0.0 0.0 0.03 0.03 0.03 94 1017.0
20240520081012 12 0 0.0 0.0 0.03 0.03 0.03 94 1017.0
20240520080512 12 0 0.0 0.0 0.03 0.03 0.03 94 1016.9
20240520080015 12 0 0.0 0.0 0.03 0.03 0.03 94 1017.0
20240520075508 12 0 0.0 0.0 0.03 0.05 0.03 95 1017.0
20240520075013 12 0 0.0 0.0 0.03 0.05 0.03 95 1017.1
20240520074513 12 0 0.0 0.0 0.03 0.05 0.03 94 1017.2
20240520074013 12 0 0.0 0.0 0.00 0.03 0.00 95 1017.1
20240520073511 12 0 0.0 0.0 0.00 0.03 0.00 95 1017.2
20240520073017 12 0 0.0 0.0 0.00 0.03 0.00 94 1017.1
20240520072512 12 0 0.0 0.0 0.00 0.03 0.00 94 1017.1
20240520072012 12 0 0.0 0.0 0.00 0.03 0.00 94 1017.0
20240520071534 12 0 0.0 0.0 0.00 0.03 0.00 94 1017.0
20240520071010 12 0 0.0 0.0 0.00 0.03 0.00 94 1016.8
20240520070512 12 0 0.0 0.0 0.00 0.03 0.00 94 1017.0
20240520070016 12 0 0.0 0.0 0.00 0.03 0.00 94 1016.8
20240520065513 12 0 0.0 0.0 0.00 0.05 0.00 94 1016.8
20240520065008 12 0 0.0 0.0 0.00 0.05 0.00 94 1016.9
20240520064513 12 0 0.0 0.0 0.00 0.05 0.00 94 1016.8
20240520064012 12 0 0.0 0.0 0.00 0.05 0.00 94 1016.9
20240520063514 12 0 0.0 0.0 0.00 0.05 0.00 94 1016.8
20240520063033 12 0 0.0 0.0 0.00 0.05 0.00 94 1016.9
20240520062512 12 0 0.0 0.0 0.00 0.05 0.00 94 1017.0
20240520062008 12 0 0.0 0.0 0.00 0.05 0.00 94 1017.1
20240520061514 12 0 0.0 0.0 0.00 0.05 0.00 94 1017.1
20240520061013 12 0 0.0 0.0 0.00 0.05 0.00 94 1017.0
20240520060512 12 0 0.0 0.0 0.00 0.05 0.00 94 1017.1
20240520060015 12 0 0.0 0.0 0.00 0.05 0.00 94 1017.0
20240520055508 12 0 0.0 0.0 0.00 0.05 0.00 94 1017.2
20240520055011 12 0 0.0 0.0 0.00 0.05 0.00 94 1017.2
20240520054515 12 0 0.0 0.0 0.00 0.05 0.00 94 1017.2
20240520054012 12 0 0.0 0.0 0.00 0.05 0.00 94 1017.2
20240520053510 12 0 0.0 0.0 0.00 0.05 0.00 94 1017.2
20240520053023 12 0 0.0 0.0 0.00 0.05 0.00 94 1017.3
20240520052512 12 0 0.0 0.0 0.00 0.05 0.00 94 1017.4
20240520052012 12 0 0.0 0.0 0.00 0.05 0.00 94 1017.3
20240520051518 12 0 0.0 0.0 0.00 0.05 0.00 94 1017.3
20240520051011 12 0 0.0 0.0 0.00 0.05 0.00 94 1017.3
20240520050512 12 0 0.0 0.0 0.00 0.05 0.00 94 1017.3
20240520050017 12 0 0.0 0.0 0.00 0.05 0.00 94 1017.4
20240520045512 12 0 0.0 0.0 0.00 0.05 0.00 94 1017.5
20240520045011 12 0 0.0 0.0 0.00 0.05 0.00 94 1017.4
20240520044513 12 0 0.0 0.0 0.00 0.05 0.00 94 1017.4